Location: Samoth
(37.3328°N, 88.7876°W)
Time: 14:28:17
(UTC+00:00)

X-37B - Pass Details

Date: 04 October 2021
Orbit: 385 x 389 km, 45.0° (Epoch: 17 October)

Event Time Altitude Azimuth Distance (km) Brightness Sun altitude
Exits shadow 10:43:40 34° 272° (W) 662 1.2 -14.7°
Maximum altitude 10:44:44 54° 213° (SSW) 476 0.7 -14.5°
Drops below altitude 10° 10:47:50 10° 135° (SE) 1,405 4.0 -13.9°
Sets 10:49:55 0° 130° (SE) 2,257 5.2 -13.4°
